Location: Ferchesar
(52.6477°N, 12.4298°E)
Time: 05:09:48
(UTC+02:00)

ISS - Pass Details

Date: 24 July 2021
Orbit: 417 x 423 km, 51.6° (Epoch: 26 September)

Event Time Altitude Azimuth Distance (km) Brightness Sun altitude
Rises 00:31:02 0° 280° (W) 2,359 0.3 -16.8°
Reaches altitude 10° 00:33:26 10° 265° (W) 1,495 -0.9 -16.9°
Enters shadow 00:35:04 19° 239° (WSW) 1,073 -1.9 -16.9°
